Погода в Нифантово

Россия / Вологодская область     59°12′49″N   38°27′55″E
темп.,
°C
ветер,
м/с
пор.,
м/с
влажн.,
%
обл.,
%
осадки,
мм/ч
давл.,
гПа
погр.,
м
14 мая, пт
пт1400:00+13ю369796 2.2 1014324
03:00+10ю499544 2.2 1016270
06:00+11ю499389 0.0 1016372
09:00+13ююз57795 0.0 1017654
12:00+16ююз56625 0.0 10171240
15:00+17ю4656100 0.0 10171327
18:00+17ю366410 0.0 1015639
21:00+13вюв33755 0.0 101537
15 мая, сб
сб1500:00+12вюв3689100 0.0 101491
03:00+12вюв2395100 0.0 101349
06:00+13вюв3894100 0.0 1012277
09:00+17вюв4583100 0.0 1011605
12:00+20ююв4672100 0.0 10101026
15:00+22ююв5868100 1.1 10081151
18:00+16юв4992100 2.3 1007317
21:00+15ю41091100 8.3 1006349
16 мая, вс
вс1600:00+13ю3896100 2.8 1006190
03:00+11ю38955 4.1 1007180
06:00+12ю4109526 0.0 1007326
09:00+15ююз688960 0.0 1008614
12:00+16ююз7980100 0.1 10081040
15:00+16юз5108296 0.3 10091024
18:00+16юз3783100 0.1 1009522
21:00+13ююз339274 0.1 101058
17 мая, пн
пн1700:00+12юз37955 0.0 1011139
03:00+11юз23966 0.0 101349
06:00+13юз249524 0.0 1014143
09:00+17юз23808 0.0 1015513
12:00+20ююз23653 0.0 10151104
15:00+22ююз2256100 0.0 10151393
18:00+20юв246794 0.0 1014294
21:00+16в347758 0.0 101452
18 мая, вт
вт1800:00+14вюв499097 0.0 1013144
03:00+15вюв51486100 0.1 1012321
06:00+15вюв51289100 0.0 1010299
09:00+20юв61275100 0.0 1010534
12:00+24ююв6106074 0.0 10091286
15:00+25ю586090 0.0 10091393
18:00+23ю3767100 0.1 1008297
21:00+19в338191 0.2 100739